Showing default

JILIN-01 KUANFU 01, 45016

Orbit data source: Space-Track

JILIN-01 KUANFU 01, 45016 is a payload satellite owned by Changguang WJ (CN) in SSO that was launched on Wed, 15 Jan 2020 UTC via a CHANG ZHENG 2D launch vehicle from the Taiyaun Space Center, China (TSC). Payload-class satellites include a variety of spacecraft equipped with specific instruments for various scientific and technological missions. These include communications satellites like Starlink; space stations such as the ISS; scientific satellites like the Hubble; Earth observation satellites from companies like Planet Labs, Umbra, and HawkEye 360; GPS; miniature CubeSats for education and research; and military/defense satellites.

Loading next visibility...
Identifier
45016, 2020-003A
Orbit
SSO
Last TLE update
7 hours ago
Origin
Manufacturer
HARB/CIOMP
Mission
Operational Commercial Imaging
Bus & Motor
JL-1, Unknown motor
Mass
1,250 kg wet, 1,250 kg dry
Launch date (UTC)
2020-01-15 (5 years ago)
Launch vehicle
CHANG ZHENG 2D
Launch site
Taiyaun Space Center, China (TSC)
Object type
Payload
Rocket body
Debris
Shape & HBR
Box + 2 Pan, 1.5 m
Radar Cross Section
2.000 m², Large (>1 m²)

Expand to show TLE details & history

TLE from 7 hours ago
0 JILIN-01 KUANFU 01
1 45016U 20003A   25181.85502872  .00002030  00000-0  12591-3 0  9991
2 45016  97.5403 257.1216 0002754 174.2364 185.8897 15.10853555302307
Epoch: 2025-06-30T20:31Z
TLE epoch observation values (Epoch: 2025-06-30T20:31:14.481Z)
Latitude
-0.00011°
Longitude
30.15243°
Altitude
538.564 km
Speed
7.592 km/s
True Right ascension
17h 08m 29s
True Declination
0° 00' 00"
Sunlit
Object was in full shadow at epoch
Visualization orbit readout
Latitude
37.89091°
Longitude
24.54025°
Altitude
540.274 km
Speed
7.595 km/s
Apparent Right ascension
20h 59m 05s
Apparent Declination
3° 07' 59"
Sunlit
Object is in full shadow
Visualization observer readout
Local Sidereal Time
14:40:03
Azimuth
84.542° E
Elevation
-1.632°
Doppler factor
1
Orbital elements
Apogee altitude
532.482 km
Perigee altitude
528.677 km
Semi-major axis
6,908.716 km
Eccentricity
0.00028
Inclination
97.5403°
RAAN
257.1216°
Arg. of periapsis
174.2364°
True anomaly
Unknown
Mean anomaly
185.8897°
Eccentric anomaly
Unknown
Mean motion
3.77961 °/min
Orbital period
95.25 mins
BSTAR
0.00012591
Loading maneuver chart data...
Loading SW <> Apogee altitude chart data...
Loading historical data...
Loading historical data...
Loading historical data...
Loading historical data...
Loading historical data...
Loading historical data...
Loading historical data...

JILIN-01 KUANFU 01 Visibility forecast

Observer location: undefined°, undefined°

Span
Click to sort rows by Start time (UTC) header in descending order
Start Az.
Max El. time (UTC)
Max El. Az.
Max El.
End time (UTC)
End Az.
6 mins2025-07-01 04:35:48.923Z140.227° SSE2025-07-01 04:38:48.923Z85.246° E31.689°2025-07-01 04:41:48.923Z9.864° NNE
6 mins2025-07-01 17:45:48.923Z22.317° NNE2025-07-01 17:47:48.923Z67.724° E41.857°2025-07-01 17:51:48.923Z184.495° SSW
|